Orbital Elements at Epoch 2459200.5 (2020-Dec-17.0) TDB
Reference: JPL 17 (heliocentric ecliptic J2000)
Element | Value | Uncertainty (1-sigma) | Units |
e | .08259771903121318 | 4.0574e-08 | |
a | 2.918928256480204 | 1.9004e-08 | au |
q | 2.677831440479183 | 1.2576e-07 | au |
i | 10.63352042560787 | 1.3365e-05 | deg |
node | 352.2038316854737 | 1.9778e-05 | deg |
peri | 94.67608508854156 | 9.3521e-05 | deg |
M | 289.3649357334173 | 9.2576e-05 | deg |
tp | 2459557.897410735785 (2021-Dec-09.39741074) | 0.00046827 | TDB |
period | 1821.518380436338 4.99 | 1.7788e-05 4.87e-08 | d yr |
n | .1976373139390245 | 1.9301e-09 | deg/d |
Q | 3.160025072481225 | 2.0573e-08 | au |
|
| | Orbit Determination Parameters
Additional Information
|